| time (UTC) | temp F | wind direction | speed MPH | gust MPH | rain 1hr in | rain 24hr in | rain mn in | humidity % | barometer mb |
| 20260505010040 | 63 | 44 | 5.0 | 24.0 | 0.00 | 0.00 | 0.00 | 28 | 997.3 |
| 20260505004540 | 64 | 333 | 14.0 | 25.0 | 0.00 | 0.00 | 0.00 | 27 | 997.1 |
| 20260505003035 | 65 | 284 | 9.0 | 17.0 | 0.00 | 0.00 | 0.00 | 27 | 997.1 |
| 20260505001534 | 66 | 360 | 8.0 | 15.0 | 0.00 | 0.00 | 0.00 | 25 | 997.0 |
| 20260505000045 | 65 | 237 | 8.0 | 15.0 | 0.00 | 0.00 | 0.00 | 26 | 996.9 |
| 20260504234534 | 66 | 289 | 3.0 | 19.0 | 0.00 | 0.00 | 0.00 | 23 | 996.9 |
| 20260504233036 | 66 | 291 | 21.0 | 29.0 | 0.00 | 0.00 | 0.00 | 25 | 996.5 |
| 20260504231526 | 68 | 350 | 9.0 | 14.0 | 0.00 | 0.00 | 0.00 | 21 | 996.2 |
| 20260504230025 | 68 | 11 | 10.0 | 16.0 | 0.00 | 0.00 | 0.00 | 21 | 995.9 |
| 20260504224523 | 69 | 17 | 10.0 | 19.0 | 0.00 | 0.00 | 0.00 | 20 | 995.8 |
| 20260504223033 | 69 | 37 | 12.0 | 15.0 | 0.00 | 0.00 | 0.00 | 20 | 995.9 |
| 20260504221520 | 70 | 60 | 14.0 | 24.0 | 0.00 | 0.00 | 0.00 | 20 | 995.7 |
| 20260504220018 | 70 | 59 | 12.0 | 22.0 | 0.00 | 0.00 | 0.00 | 19 | 995.7 |
| 20260504214516 | 71 | 350 | 13.0 | 19.0 | 0.00 | 0.00 | 0.00 | 18 | 995.8 |
| 20260504213029 | 72 | 32 | 13.0 | 20.0 | 0.00 | 0.00 | 0.00 | 17 | 996.0 |
| 20260504211513 | 72 | 351 | 13.0 | 24.0 | 0.00 | 0.00 | 0.00 | 18 | 996.1 |
| 20260504210012 | 72 | 16 | 4.0 | 19.0 | 0.00 | 0.00 | 0.00 | 16 | 996.5 |
| 20260504204524 | 72 | 44 | 9.0 | 12.0 | 0.00 | 0.00 | 0.00 | 16 | 996.5 |
| 20260504203005 | 70 | 23 | 7.0 | 15.0 | 0.00 | 0.00 | 0.00 | 17 | 996.8 |
| 20260504201504 | 71 | 26 | 14.0 | 25.0 | 0.00 | 0.00 | 0.00 | 17 | 997.0 |
| 20260504200003 | 70 | 326 | 3.0 | 14.0 | 0.00 | 0.00 | 0.00 | 16 | 997.1 |
| 20260504194502 | 70 | 340 | 13.0 | 18.0 | 0.00 | 0.00 | 0.00 | 17 | 997.0 |
| 20260504193101 | 70 | 317 | 7.0 | 13.0 | 0.00 | 0.00 | 0.00 | 16 | 997.2 |
| 20260504191603 | 70 | 167 | 2.0 | 6.0 | 0.00 | 0.00 | 0.00 | 16 | 996.9 |
| 20260504190105 | 70 | 167 | 5.0 | 9.0 | 0.00 | 0.00 | 0.00 | 15 | 996.9 |
| 20260504184600 | 71 | 112 | 12.0 | 17.0 | 0.00 | 0.00 | 0.00 | 15 | 996.9 |
| 20260504183057 | 70 | 142 | 9.0 | 14.0 | 0.00 | 0.00 | 0.00 | 17 | 997.0 |
| 20260504181600 | 69 | 22 | 9.0 | 20.0 | 0.00 | 0.00 | 0.00 | 16 | 997.2 |
| 20260504180056 | 70 | 296 | 12.0 | 16.0 | 0.00 | 0.00 | 0.00 | 14 | 997.1 |
| 20260504174550 | 0 | 261 | 4.0 | 14.0 | 0.00 | 0.00 | 0.00 | 997.1 | |
| 20260504081519 | 47 | 209 | 2.0 | 6.0 | 0.00 | 0.00 | 0.00 | 53 | 1000.7 |
| 20260504044559 | 55 | 33 | 8.0 | 11.0 | 0.00 | 0.00 | 0.00 | 37 | 1002.7 |
| 20260504043055 | 56 | 22 | 7.0 | 10.0 | 0.00 | 0.00 | 0.00 | 36 | 1002.9 |
| 20260504041549 | 56 | 11 | 6.0 | 9.0 | 0.00 | 0.00 | 0.00 | 36 | 1003.1 |
| 20260504040104 | 55 | 10 | 7.0 | 9.0 | 0.00 | 0.00 | 0.00 | 37 | 1003.2 |
| 20260504034610 | 55 | 338 | 7.0 | 14.0 | 0.00 | 0.00 | 0.00 | 37 | 1003.1 |
| 20260504033048 | 57 | 310 | 9.0 | 12.0 | 0.00 | 0.00 | 0.00 | 35 | 1003.1 |
| 20260504031547 | 58 | 340 | 8.0 | 11.0 | 0.00 | 0.00 | 0.00 | 31 | 1002.8 |
| 20260504030104 | 60 | 318 | 8.0 | 12.0 | 0.00 | 0.00 | 0.00 | 28 | 1002.7 |
| 20260504024552 | 62 | 300 | 11.0 | 14.0 | 0.00 | 0.00 | 0.00 | 25 | 1002.7 |
| 20260504023045 | 63 | 322 | 16.0 | 19.0 | 0.00 | 0.00 | 0.00 | 23 | 1002.6 |
| 20260504021549 | 60 | 350 | 15.0 | 19.0 | 0.00 | 0.00 | 0.00 | 26 | 1002.2 |
| 20260504020044 | 61 | 296 | 8.0 | 9.0 | 0.00 | 0.00 | 0.00 | 30 | 1002.1 |
| 20260504014544 | 62 | 304 | 4.0 | 6.0 | 0.00 | 0.00 | 0.00 | 27 | 1002.0 |
| 20260504013050 | 63 | 275 | 5.0 | 8.0 | 0.00 | 0.00 | 0.00 | 25 | 1002.0 |
| 20260504011543 | 64 | 262 | 6.0 | 7.0 | 0.00 | 0.00 | 0.00 | 25 | 1002.0 |